Information Storage

This is the current data collected from the Raspberry Pis. Data is sampled asynchronously. The server scripts process and synchronize the data before storage.


Time PV Temperature (F) Irradiance (W/m2) Die Temperature (F) PV Voltage (V) Forecasted Irradiance (W/m2) Forecasted Power (W)
4/16/17 23:40:12 67.2 0 72.22 0.13
4/16/17 23:35:17 67.32 0 72.44 0.13
4/16/17 23:30:12 67.36 0 72.44 0.13
4/16/17 23:25:12 69.22 0 72.5 0
4/16/17 23:20:13 67.54 0 72.84 0
4/16/17 23:15:13 67.05 0 73.06 0
4/16/17 23:10:13 68.31 0 72.89 0
4/16/17 23:05:13 67.62 0 73.18 0
4/16/17 23:00:14 68.13 0 73.51 0
4/16/17 22:55:14 67.95 0 73.74 0.13
4/16/17 22:50:14 70.06 0 74.3 0
4/16/17 22:45:14 70.18 0 74.64 0.92
4/16/17 22:40:15 71.75 0 75.09 0.39
4/16/17 22:35:15 71.2 0 75.71 0
4/16/17 22:30:15 73.13 0 77.17 0
4/16/17 22:25:15 72.1 0 77.62 0.13
4/16/17 22:20:15 71.36 0 77.56 0
4/16/17 22:15:26 69.32 0 77.39 0
4/16/17 22:10:16 70.37 0 77.45 0
4/16/17 22:05:16 69.16 0 77.56 0
4/16/17 22:00:16 71.83 0 77.34 0
4/16/17 21:55:17 71.55 0 77.96 0
4/16/17 21:50:17 66.77 0 77.68 0
4/16/17 21:45:17 67.18 0 77.96 0
4/16/17 21:40:17 69.87 0 77.96 0
4/16/17 21:35:18 70.35 0 78.18 0.39
4/16/17 21:30:23 70.99 0 78.18 0
4/16/17 21:25:18 68.38 0 78.01 0
4/16/17 21:20:18 72.44 0 78.07 0
4/16/17 21:15:19 69.48 0 76.44 0.26
4/16/17 21:10:19 69.3 0 76.89 0
4/16/17 21:05:19 70.45 0 76.83 0
4/16/17 21:00:19 70.71 0 76.72 0.39
4/16/17 20:55:21 70.94 0 78.63 0
4/16/17 20:50:20 69.29 0 77.56 0
4/16/17 20:45:20 69.91 0 78.41 0
4/16/17 20:40:20 70.28 0 77.68 0
4/16/17 20:35:20 70.86 0 78.07 0
4/16/17 20:30:21 67.49 0 78.18 0
4/16/17 20:25:26 70.34 0 78.52 0
4/16/17 20:20:21 70.9 0 78.63 0
4/16/17 20:15:22 70.6 0 78.52 0.13
4/16/17 20:10:22 71.54 0 78.52 0.39
4/16/17 20:05:22 72.33 0 78.8 3.81
4/16/17 20:00:22 71.9 0 79.02 9.72
4/16/17 19:55:22 72.73 0 79.19 23.91
4/16/17 19:50:22 71.33 0 79.53 40.07
4/16/17 19:45:23 72.88 0 79.81 52.42
4/16/17 19:40:23 74.62 0 80.09 62.27
4/16/17 19:35:23 76.15 0 80.49 73.18
4/16/17 19:30:34 77.25 0 81.56 79.75
4/16/17 19:25:24 76.16 0 81.72 89.21
4/16/17 19:20:24 76.59 0 81.44 96.3
4/16/17 19:15:24 74.94 0 81.27 99.45
4/16/17 19:10:24 76.88 0 81.44 99.98
4/16/17 19:05:25 76.77 0 81.61 102.87
4/16/17 19:00:25 76.4 0 81.61 105.37
4/16/17 18:55:25 76.19 0 81.5 105.37
4/16/17 18:50:25 79.71 0 81.89 107.47
4/16/17 18:45:25 78.46 0 81.5 107.99
4/16/17 18:40:26 80.76 0 81.67 105.76
4/16/17 18:35:26 76.8 0 81.78 107.34
4/16/17 18:30:26 76.72 0 82.23 108.39
4/16/17 18:25:26 78.14 0 82.29 107.86
4/16/17 18:20:27 77.75 24.4141 82.46 108.39
4/16/17 18:15:27 80.96 24.4141 83.07 110.49
4/16/17 18:10:27 80.99 24.4141 82.96 109.96
4/16/17 18:05:27 84.39 24.4141 83.19 110.62
4/16/17 18:00:27 80.62 24.4141 83.36 109.18
4/16/17 17:55:28 82.31 73.2422 83.58 110.88
4/16/17 17:50:28 79.73 48.8281 83.58 111.8
4/16/17 17:45:28 86.47 73.2422 83.92 112.85
4/16/17 17:40:28 86 73.2422 84.14 111.41
4/16/17 17:35:29 85.13 122.07 84.65 111.8
4/16/17 17:30:29 87.66 439.453 86 116.27
4/16/17 17:25:29 93.24 439.453 86.96 117.19
4/16/17 17:20:29 85.67 390.625 85.77 115.09
4/16/17 17:15:29 81.6 463.867 86.22 117.58
4/16/17 17:10:30 83.22 512.695 87.91 116.93
4/16/17 17:05:30 80.86 537.109 86.28 114.3
4/16/17 17:00:30 83.85 48.8281 84.82 111.8
4/16/17 16:55:30 85.62 708.008 88.31 117.45
4/16/17 16:50:31 85.16 634.766 85.89 119.55
4/16/17 16:45:31 88.13 48.8281 84.54 110.49
4/16/17 16:40:31 82.87 48.8281 84.76 110.75
4/16/17 16:35:31 85.05 48.8281 84.76 110.49
4/16/17 16:30:31 85.1 48.8281 85.1 109.18
4/16/17 16:25:32 90.56 244.141 85.94 112.99
4/16/17 16:20:32 90.97 732.422 86.96 116.4
4/16/17 16:15:32 87.85 781.25 87.01 119.29
4/16/17 16:10:33 84.87 781.25 85.55 116.01
4/16/17 16:05:33 97.33 830.078 86.73 120.47
4/16/17 16:00:33 79.63 73.2422 84.37 111.28
4/16/17 15:55:33 87.63 0 84.87 108.39
4/16/17 15:50:38 83.28 122.07 84.99 110.36
4/16/17 15:45:33 98.28 195.312 87.35 114.43
4/16/17 15:40:42 94.3 488.281 86.45 118.77
4/16/17 15:35:34 99.35 219.727 88.53 108.78
4/16/17 15:30:44 94.43 927.734 88.36 118.77
4/16/17 15:25:34 92.73 97.6563 86.17 109.7
4/16/17 15:20:40 93.74 708.008 87.91 116.27
4/16/17 15:15:35 85.82 170.898 86.28 111.8
4/16/17 15:10:35 104.66 976.562 89.49 112.07
4/16/17 15:05:35 102.54 976.562 90.22 119.69
4/16/17 15:00:36 91.71 195.312 88.53 112.2
4/16/17 14:55:36 86.39 1000.98 89.26 117.98
4/16/17 14:50:36 93.58 219.727 86.34 113.25
4/16/17 14:45:36 97.4 146.484 88.08 110.23
4/16/17 14:40:36 96.38 1049.8 89.94 116.66
4/16/17 14:35:36 103.51 1074.22 88.81 118.9
4/16/17 14:30:37 88.07 1000.98 89.49 118.63
4/16/17 14:25:37 95.45 756.836 86.22 121
4/16/17 14:20:37 92.62 170.898 86.06 119.95
4/16/17 14:15:37 82.26 97.6563 87.18 112.85
4/16/17 14:10:42 96.42 73.2422 88.14 110.88
4/16/17 14:05:43 84.61 146.484 87.01 111.15
4/16/17 14:00:38 105.2 146.484 88.47 104.97
4/16/17 13:55:38 109.32 1000.98 95.17 112.99
4/16/17 13:50:43 100 903.32 93.65 112.72
4/16/17 13:45:38 108.15 927.734 94.89 112.59
4/16/17 13:40:39 114.36 903.32 89.66 112.85
4/16/17 13:35:39 110.83 927.734 92.97 112.99
4/16/17 13:30:39 106.53 878.906 88.25 113.9
4/16/17 13:25:39 106.33 903.32 91.74 113.51
4/16/17 13:20:39 116.52 878.906 90.16 113.12
4/16/17 13:15:40 98.72 878.906 93.59 112.99
4/16/17 13:10:40 117.54 878.906 92.58 113.64
4/16/17 13:05:40 104.15 903.32 93.76 112.59
4/16/17 13:00:40 133.8 854.492 90.78 113.12
4/16/17 12:55:40 101.08 927.734 92.02 112.72
4/16/17 12:50:41 114.31 878.906 89.82 112.99
4/16/17 12:45:41 95.45 854.492 91.96 113.12
4/16/17 12:40:41 102.27 830.078 91.46 113.25
4/16/17 12:35:41 98.43 830.078 87.07 113.9
4/16/17 12:30:41 80.88 805.664 89.88 112.99
4/16/17 12:25:42 108.95 756.836 88.64 112.85
4/16/17 12:20:42 108.26 756.836 91.79 112.59
4/16/17 12:15:42 104.44 756.836 89.04 112.99
4/16/17 12:10:42 109.9 756.836 87.74 113.25
4/16/17 12:05:43 116.57 732.422 91.23 112.07
4/16/17 12:00:43 115.37 708.008 91.34 112.33
4/16/17 11:55:43 86.56 708.008 89.09 112.99
4/16/17 11:50:43 101.62 683.594 85.1 113.25
4/16/17 11:45:43 93.5 659.18 91.06 113.25
4/16/17 11:40:44 100.21 634.766 89.94 112.99
4/16/17 11:35:44 96.85 659.18 86.11 113.51
4/16/17 11:30:44 74.76 610.352 86.45 113.12
4/16/17 11:25:44 79.92 610.352 88.25 113.38
4/16/17 11:20:45 83.34 610.352 90.72 113.38
4/16/17 11:12:32 86.44 561.523 86.17 114.43
4/16/17 11:07:27 91.86 537.109 85.94 114.69
4/16/17 11:02:32 80.15 537.109 88.42 114.3
4/16/17 10:57:28 93.81 537.109 87.8 115.09
4/16/17 10:52:28 98.06 463.867 86 114.96
4/16/17 10:47:28 83.63 463.867 84.76 115.09
4/16/17 10:42:30 72.26 463.867 84.76 115.35
4/16/17 10:37:29 72.33 463.867 83.92 115.88
4/16/17 10:32:29 76.85 415.039 79.93 115.88
4/16/17 10:27:29 79.22 390.625 77.45 116.14
4/16/17 10:22:29 72.56 390.625 77.22 116.93
4/16/17 10:17:30 68.53 366.211 76.66 117.06
4/16/17 10:12:30 71.37 317.383 74.97 117.58
4/16/17 10:07:40 66.19 292.969 73.74 117.98
4/16/17 10:02:30 69.17 292.969 73.12 118.11
4/16/17 09:57:31 64.47 317.383 72.16 118.5
4/16/17 09:52:31 67.04 292.969 72.27 118.77
4/16/17 09:47:31 54.02 73.2422 73.34 114.04
4/16/17 09:42:31 63.62 244.141 71.66 119.03
4/16/17 09:37:32 67.51 244.141 71.21 119.16
4/16/17 09:32:32 69.55 244.141 70.36 119.16
4/16/17 09:27:32 67.36 219.727 72.44 117.85
4/16/17 09:22:32 64.41 219.727 70.81 119.29
4/16/17 09:17:32 55.97 73.2422 72.05 113.64
4/16/17 09:12:33 67.23 219.727 70.76 119.42
4/16/17 09:07:33 57.33 122.07 71.21 119.69
4/16/17 09:02:33 67.73 170.898 70.14 119.29
4/16/17 08:57:33 62.79 146.484 70.81 119.42
4/16/17 08:52:34 53.08 48.8281 67.83 115.88
4/16/17 08:47:34 54.75 73.2422 67.55 118.24
4/16/17 08:42:34 51.48 48.8281 68.73 119.03
4/16/17 08:37:34 51.78 0 67.55 119.95
4/16/17 08:32:35 56.17 48.8281 66.87 119.03
4/16/17 08:27:35 52.78 97.6563 67.66 120.21
4/16/17 08:22:35 48.98 48.8281 67.1 119.29
4/16/17 08:17:36 48.46 24.4141 65.81 119.42
4/16/17 08:12:36 46.8 0 65.19 116.27
4/16/17 08:07:36 46.83 48.8281 64.57 118.9
4/16/17 08:02:36 46.9 48.8281 64.34 117.98
4/16/17 07:57:36 47.47 0 64.12 116.8
4/16/17 07:52:37 49.07 0 63.72 115.22
4/16/17 07:47:37 50.18 48.8281 63.67 117.06
4/16/17 07:42:37 56.26 73.2422 63.44 120.47
4/16/17 07:37:38 51.1 24.4141 62.77 120.21
4/16/17 07:32:43 43.24 0 62.26 118.37
4/16/17 07:27:38 51.53 0 61.7 116.01
4/16/17 07:22:48 50.35 0 61.53 114.04
4/16/17 07:17:40 48.83 0 61.53 112.46
4/16/17 07:12:39 50.57 0 62.49 111.67
4/16/17 07:07:39 46.64 0 60.18 108.26
4/16/17 07:02:39 45.58 0 60.01 106.81
4/16/17 06:57:40 46.35 0 60.97 106.55
4/16/17 06:52:40 45.62 0 60.74 104.84
4/16/17 06:47:40 45.08 0 60.18 103.66
4/16/17 06:42:40 45.31 0 59.79 102.74
4/16/17 06:37:41 45.77 0 59.51 100.37
4/16/17 06:32:41 44.21 0 59.39 95.64
4/16/17 06:27:41 42.74 0 59.28 86.97
4/16/17 06:22:42 42.27 0 58.94 78.04
4/16/17 06:17:42 43.03 0 58.89 66.35
4/16/17 06:12:42 43.04 0 58.94 54.78
4/16/17 06:07:42 43.03 0 59.22 37.05
4/16/17 06:02:43 43.57 0 59 18.26
4/16/17 05:57:43 43.52 0 59 7.49
4/16/17 05:52:43 43.28 0 58.89 2.23
4/16/17 05:47:43 43.33 0 58.89 0.39
4/16/17 05:42:44 43.13 0 58.89 0
4/16/17 05:37:49 41.7 0 58.94 0
4/16/17 05:20:24 43.99 0 59.51 0
4/16/17 05:15:24 44.3 0 59.51 0
4/16/17 05:10:29 44.69 0 59.62 0.13
4/16/17 05:05:24 42.56 0 59.51 0.53
4/16/17 05:00:25 44.81 0 59.34 0
4/16/17 04:55:25 45.02 0 59.22 0
4/16/17 04:50:25 46.34 0 59.39 0
4/16/17 04:45:26 46.81 0 59.62 0.26
4/16/17 04:40:36 46.56 0 59.62 0
4/16/17 04:35:26 47.55 0 59.56 0
4/16/17 04:30:26 47.33 0 59.34 0.53
4/16/17 04:25:27 47.56 0 59.11 0.39
4/16/17 04:20:27 48.72 0 59 0.39
4/16/17 04:15:27 48.64 0 59.22 0
4/16/17 04:10:27 47.99 0 58.89 0
4/16/17 04:05:28 47.75 0 58.61 0
4/16/17 04:00:28 47.1 0 58.78 0.53
4/16/17 03:55:28 46.73 0 58.72 0
4/16/17 03:50:29 47.32 0 58.66 0
4/16/17 03:45:29 47.55 0 58.61 0.13
4/16/17 03:40:29 45.45 0 58.83 0
4/16/17 03:35:29 46.46 0 58.83 0
4/16/17 03:30:30 47.57 0 59 0.26
4/16/17 03:25:30 46.51 0 59.28 0
4/16/17 03:20:30 48.92 0 59 0
4/16/17 03:15:30 48.3 0 58.78 0
4/16/17 03:10:31 50.5 0 59 0
4/16/17 03:05:31 50.53 0 59.28 0.26
4/16/17 03:00:31 50.06 0 59.34 0
4/16/17 02:55:31 50.63 0 59.45 0
4/16/17 02:50:32 49.83 0 59.39 0.53
4/16/17 02:45:32 50.55 0 59.51 0.26
4/16/17 02:40:32 50.21 0 59.68 0
4/16/17 02:35:33 50.18 0 59.73 0.39
4/16/17 02:30:33 50.07 0 59.84 0.53
4/16/17 02:25:33 49.28 0 59.84 0
4/16/17 02:20:33 49.98 0 59.39 0
4/16/17 02:15:34 49.78 0 59.39 0
4/16/17 02:10:34 50.54 0 59.45 0
4/16/17 02:05:34 50.5 0 59.51 0
4/16/17 02:00:34 51.21 0 59.56 0
4/16/17 01:55:35 51.76 0 59.62 0
4/16/17 01:50:35 51.8 0 59.9 0.39
4/16/17 01:45:35 50.99 0 60.13 0.13
4/16/17 01:40:35 52.69 0 60.13 0
4/16/17 01:35:39 52.71 0 60.35 0
4/16/17 01:30:36 52.43 0 60.52 0
4/16/17 01:25:36 52.29 0 60.41 0
4/16/17 01:20:36 52.39 0 60.24 0.13
4/16/17 01:15:37 52.62 0 60.35 0.13
4/16/17 01:10:37 52.36 0 60.29 0
4/16/17 01:05:37 52.84 0 60.29 0
4/16/17 01:00:38 52.37 0 60.35 0.39
4/16/17 00:55:38 52.48 0 60.24 0.53
4/16/17 00:50:38 52.97 0 60.24 0
4/16/17 00:45:38 52.15 0 60.41 0.13
4/16/17 00:40:39 52.94 0 60.46 0
4/16/17 00:35:44 52.41 0 60.46 0
4/16/17 00:30:39 52.25 0 60.41 0
4/16/17 00:25:39 52.15 0 60.41 0.13
4/16/17 00:20:40 51.78 0 60.46 0
4/16/17 00:15:40 50.82 0 60.52 0
4/16/17 00:10:40 50.95 0 60.63 0
4/16/17 00:05:41 51.51 0 60.69 0
4/16/17 00:00:41 52.14 0 60.86 0
4/15/17 23:55:41 52.68 0 61.03 0.13
4/15/17 23:50:46 53.26 0 61.19 0
4/15/17 23:45:42 53.76 0 61.25 0.26
4/15/17 23:40:42 55.04 0 61.36 0.39
4/15/17 23:35:42 54.6 0 61.31 0
4/15/17 23:30:42 54.63 0 61.59 0
4/15/17 23:25:43 53.8 0 61.53 0.53
4/15/17 23:20:43 52.79 0 61.53 0.13
4/15/17 23:15:43 54.15 0 61.42 0.13
4/15/17 23:10:43 53.92 0 61.59 0
4/15/17 23:05:44 52.11 0 61.36 0.13
4/15/17 23:00:44 52.84 0 61.53 0
4/15/17 22:55:44 52.71 0 61.59 0
4/15/17 22:50:44 47.51 0 61.76 0
4/15/17 22:45:45 52.23 0 61.76 0
4/15/17 22:40:45 52.1 0 61.81 0
4/15/17 22:35:45 53.49 0 61.93 0
4/15/17 22:30:46 52.03 0 62.04 0
4/15/17 22:25:46 53.27 0 62.15 0
4/15/17 22:20:46 53.44 0 62.21 0
4/15/17 22:15:46 52.99 0 62.32 0
4/15/17 22:10:47 53.15 0 62.38 0
4/15/17 22:05:47 53.92 0 62.66 0
4/15/17 22:00:52 53.36 0 62.71 0
4/15/17 21:55:47 52.43 0 62.83 0
4/15/17 21:50:48 54.81 0 63.05 0
4/15/17 21:45:48 54.46 0 62.99 0
4/15/17 21:40:48 54.93 0 62.99 0
4/15/17 21:35:48 55 0 63.22 0
4/15/17 21:30:54 54.68 0 63.11 0.13
4/15/17 21:25:50 54.53 0 63.22 0.26
4/15/17 21:20:49 49.71 0 63.44 0
4/15/17 21:15:49 55.79 0 63.44 0.39
4/15/17 21:10:50 55.78 0 63.5 0.26
4/15/17 21:05:50 54.84 0 63.44 0.13
4/15/17 21:00:50 54.72 0 63.39 0
4/15/17 20:55:50 54.74 0 63.44 0
4/15/17 20:50:51 53.66 0 63.5 0.26
4/15/17 20:45:51 54.13 0 63.61 0.53
4/15/17 20:40:51 54.32 0 63.61 0
4/15/17 20:35:51 54.57 0 63.78 0
4/15/17 20:30:52 46.94 0 63.89 0
4/15/17 20:25:52 56.57 0 64.12 0.13
4/15/17 20:20:52 55.85 0 64.06 0
4/15/17 20:15:53 55.64 0 64.01 0.66
4/15/17 20:10:53 55.04 0 64.06 0.79
4/15/17 20:05:53 54.91 0 64.12 3.28
4/15/17 20:00:53 54.65 0 64.18 8.15
4/15/17 19:55:54 54.68 0 64.12 19.84
4/15/17 19:50:54 54.64 0 64.29 37.84
4/15/17 19:45:54 55.19 0 64.23 53.34
4/15/17 19:40:54 55.61 0 64.34 66.87
4/15/17 19:35:55 55.58 0 64.57 78.3
4/15/17 19:30:55 53.91 0 64.68 87.89
4/15/17 19:25:55 56.13 0 64.79 95.51
4/15/17 19:20:55 57.28 0 64.85 99.45
4/15/17 19:15:56 56.26 0 65.19 103.39
4/15/17 19:10:56 57.88 0 65.41 105.76
4/15/17 19:05:56 57.23 0 65.41 106.42
4/15/17 19:00:56 59.69 0 65.52 106.68
4/15/17 18:55:57 58.57 0 65.81 108.12
4/15/17 18:50:57 60.72 0 65.86 109.57
4/15/17 18:45:57 56.94 24.4141 66.37 109.18
4/15/17 18:40:57 62 0 66.14 111.41
4/15/17 18:35:58 62.75 0 66.2 110.23
4/15/17 18:30:58 60.23 0 66.48 109.18
4/15/17 18:25:58 63.08 24.4141 66.26 113.38
4/15/17 18:20:58 60.76 24.4141 66.14 113.38
4/15/17 18:15:59 62.34 0 65.92 111.41
4/15/17 18:11:02 61.42 0 65.92 112.2
4/15/17 18:05:59 60.42 24.4141 65.81 112.33
4/15/17 18:00:59 64.26 0 65.97 112.07
4/15/17 17:56:00 63.3 24.4141 66.09 111.67
4/15/17 17:51:00 62.97 0 65.75 112.46
4/15/17 17:46:10 62.88 73.2422 65.75 112.72
4/15/17 17:41:01 63.29 0 65.64 112.33
4/15/17 17:36:01 60.85 0 66.14 111.93
4/15/17 17:31:01 64.04 0 65.86 111.41
4/15/17 17:26:01 62.32 0 65.58 111.41
4/15/17 17:21:02 67.2 0 66.09 112.2
4/15/17 17:16:02 64.3 0 65.97 113.38
4/15/17 17:11:02 67.45 24.4141 66.2 114.17
4/15/17 17:06:02 64.99 0 66.31 114.43
4/15/17 17:01:03 68.4 0 66.43 114.43
4/15/17 16:56:03 66.4 48.8281 66.26 115.09
4/15/17 16:51:03 66.43 48.8281 66.2 116.01
4/15/17 16:46:03 64.09 73.2422 66.31 117.45
4/15/17 16:41:04 65.26 48.8281 66.87 116.4
4/15/17 16:36:04 59.37 97.6563 66.54 117.06
4/15/17 16:31:04 61.14 97.6563 66.59 117.58
4/15/17 16:26:04 66.16 97.6563 66.2 117.58
4/15/17 16:21:05 66.75 97.6563 65.92 117.71
4/15/17 16:16:05 72.16 48.8281 66.31 116.8
4/15/17 16:11:05 65.81 48.8281 65.92 116.8
4/15/17 16:06:05 70.09 97.6563 66.2 118.11
4/15/17 16:01:06 68.81 170.898 65.86 119.16
4/15/17 15:56:11 68.27 122.07 65.69 118.9
4/15/17 15:51:06 63.6 48.8281 65.75 116.8
4/15/17 15:46:06 59.31 73.2422 65.92 117.06
4/15/17 15:41:07 72.02 97.6563 65.97 118.77
4/15/17 15:36:07 65.38 170.898 66.54 119.03
4/15/17 15:31:07 62.83 170.898 65.47 119.03
4/15/17 15:26:07 67.99 97.6563 65.92 117.58
4/15/17 15:21:08 68.62 195.312 65.69 119.69
4/15/17 15:16:08 68 170.898 65.81 119.82
4/15/17 15:11:08 66.13 146.484 64.91 118.9
4/15/17 15:06:08 63.49 122.07 64.79 119.55
4/15/17 15:01:09 65.32 97.6563 65.19 118.9
4/15/17 14:56:09 66.85 146.484 65.24 118.63
4/15/17 14:51:09 63.98 97.6563 65.07 118.24
4/15/17 14:46:10 63.94 73.2422 64.79 118.37
4/15/17 14:41:10 70.61 97.6563 64.68 118.63
4/15/17 14:33:36 65.12 48.8281 65.13 116.93
4/15/17 14:28:36 58.25 0 64.68 115.48
4/15/17 14:23:36 57.97 0 64.23 114.82
4/15/17 14:18:36 62.63 24.4141 64.51 114.82
4/15/17 14:13:37 61.03 0 64.51 113.77
4/15/17 14:08:37 63.07 0 64.46 114.17
4/15/17 14:03:40 63.96 0 64.57 114.96
4/15/17 13:58:37 63 24.4141 65.58 116.14
4/15/17 13:53:38 64.65 24.4141 65.19 116.66
4/15/17 13:48:38 65.17 48.8281 65.58 116.66
4/15/17 13:43:38 65.94 48.8281 65.92 116.27
4/15/17 13:38:38 65.34 73.2422 65.97 117.85
4/15/17 13:33:39 66.58 73.2422 65.81 118.24
4/15/17 13:28:39 63.15 97.6563 65.75 119.42
4/15/17 13:23:39 63.25 122.07 65.92 119.55
4/15/17 13:18:39 61.49 122.07 65.69 118.9
4/15/17 13:13:40 65.7 97.6563 65.69 118.37
4/15/17 13:08:40 69.52 73.2422 66.48 117.32
4/15/17 13:03:45 65.82 97.6563 66.82 116.8
4/15/17 12:58:40 82.59 146.484 67.1 118.5
4/15/17 12:53:41 64.93 219.727 67.55 119.03
4/15/17 12:48:41 71.16 195.312 67.04 119.16
4/15/17 12:43:41 69.84 219.727 66.54 119.29
4/15/17 12:38:41 74.28 244.141 66.26 119.69
4/15/17 12:33:42 79.22 341.797 67.83 120.21
4/15/17 12:28:42 77.54 292.969 67.61 120.21
4/15/17 12:23:42 65.2 366.211 67.55 121
4/15/17 12:18:47 72.11 292.969 66.59 120.74
4/15/17 12:13:43 73.22 244.141 66.43 119.95
4/15/17 12:08:43 71.35 292.969 66.37 120.21
4/15/17 12:03:43 65.74 341.797 67.55 121.26
4/15/17 11:58:44 68.16 341.797 65.75 119.42
4/15/17 11:53:44 76.19 512.695 65.64 121.79
4/15/17 11:48:50 74.19 805.664 64.85 124.15
4/15/17 11:43:44 70.94 292.969 64.79 121.26
4/15/17 11:38:55 63.18 170.898 64.23 118.63
4/15/17 11:33:45 69.13 219.727 63.5 120.61
4/15/17 11:28:45 61.44 244.141 63.44 120.47
4/15/17 11:23:45 70.92 195.312 63.16 119.55
4/15/17 11:18:46 72.39 317.383 62.66 121.52
4/15/17 11:13:46 73.45 292.969 62.26 120.87
4/15/17 11:08:46 69.37 488.281 61.64 124.42
4/15/17 11:03:46 71.69 219.727 61.31 120.34
4/15/17 10:58:47 64.05 244.141 60.8 121.92
4/15/17 10:53:47 63.88 195.312 59.84 121.79
4/15/17 10:48:47 55.13 122.07 58.44 119.69
4/15/17 10:43:47 62.1 97.6563 59.17 118.63
4/15/17 10:38:48 58.86 146.484 59.06 120.61
4/15/17 10:33:48 59.13 170.898 58.66 121.26
4/15/17 10:28:48 61.47 170.898 58.21 121.52
4/15/17 10:23:49 54.93 122.07 57.03 119.69
4/15/17 10:18:49 56.22 97.6563 57.71 119.82
4/15/17 10:13:49 58.95 170.898 57.14 121.52
4/15/17 10:08:49 55.26 122.07 56.47 121.39
4/15/17 10:03:50 54.07 97.6563 55.63 120.47
4/15/17 09:58:50 54.83 73.2422 55.96 120.34
4/15/17 09:53:50 48.15 97.6563 55.23 120.61
4/15/17 09:48:50 53.65 48.8281 54.95 120.08
4/15/17 09:43:56 52 48.8281 54.44 117.71
4/15/17 09:38:51 51.98 0 53.99 116.27
4/15/17 09:33:51 49.81 24.4141 54.56 117.85
4/15/17 09:28:52 53.58 0 54.33 117.32
4/15/17 09:23:52 51.95 24.4141 54.61 118.11
4/15/17 09:18:52 50.53 48.8281 54.67 118.77
4/15/17 09:13:52 52.38 73.2422 54.39 119.42
4/15/17 09:08:53 53.99 48.8281 54.22 118.77
4/15/17 09:03:53 46.22 48.8281 54.44 117.71
4/15/17 08:58:53 49.83 0 53.88 116.93
4/15/17 08:53:59 48.21 0 53.43 117.58
4/15/17 08:49:07 48.39 0 53.54 117.06
4/15/17 08:43:54 46.42 24.4141 53.15 115.48
4/15/17 08:38:54 48.88 24.4141 53.15 113.64
4/15/17 08:33:55 45.77 0 53.21 114.04
4/15/17 08:29:00 47.59 0 52.81 115.74
4/15/17 08:23:55 47.88 0 52.76 114.17
4/15/17 08:18:55 48.23 0 53.15 113.77
4/15/17 08:13:56 46.5 0 52.7 114.69
4/15/17 08:08:56 47.69 0 52.42 114.82
4/15/17 08:03:56 48.68 0 52.36 114.69
4/15/17 07:58:57 46.79 0 52.08 114.04
4/15/17 07:53:57 46.71 0 51.97 113.9
4/15/17 07:48:57 44.8 0 52.47 114.43
4/15/17 07:43:57 43.4 24.4141 52.42 114.82
4/15/17 07:38:58 42.86 0 52.14 113.38
4/15/17 07:33:58 42.6 0 52.14 113.77
4/15/17 07:28:58 47.06 0 51.97 114.96
4/15/17 07:23:59 45.53 0 51.74 110.88
4/15/17 07:18:59 45.3 0 51.86 107.2
4/15/17 07:13:59 43.14 0 51.86 108.65
4/15/17 07:08:59 43.97 0 51.46 105.76
4/15/17 07:04:00 43.75 0 51.24 105.63
4/15/17 06:59:00 44.18 0 51.29 102.87
4/15/17 06:54:00 42.97 0 51.01 102.74
4/15/17 06:49:00 43.82 0 50.9 98.67
4/15/17 06:44:01 43.89 0 50.79 94.99
4/15/17 06:39:01 41.62 0 50.45 91.18
4/15/17 06:34:01 41.34 0 50.39 85.13
4/15/17 06:29:02 42.57 0 50.11 80.27
4/15/17 06:24:02 42.68 0 50.11 71.34
4/15/17 06:19:02 42.06 0 49.94 62.01
4/15/17 06:14:03 40 0 50.11 47.3
4/15/17 06:09:03 41.4 0 49.83 31.79
4/15/17 06:04:03 41.95 0 49.72 16.82
4/15/17 05:59:03 41.84 0 49.72 6.44
4/15/17 05:54:04 42.04 0 49.66 3.02
4/15/17 05:49:04 41.92 0 49.61 1.18

Previous 1 2 3 4 5 6 7 8 9 10 11 12 13 14 15 16 17 Next